TJS-6

Last updated on Mon Jun 22 2026 00:03:07 GMT+0000 (Coordinated Universal Time)

1 47613U 21010A 26172.42545174 .00000041 00000+0 00000+0 0 9998 2 47613 0.2382 263.7649 0003014 225.1211 112.3612 1.00270790 19841
UTC large
Height (km)
Speed (km/s)
/
Latitude / Longitude
Inclination (degrees)
Orbital Period (minutes)
Azimuth
Elevation
Range (km)
Doppler Factor

Next 0 passes for location: London (51.5072 / 0.1276)

No passes found over London.
TJS-6